Location: Jackson Park
(37.2862°N, 79.9123°W)
Time: 20:46:10
(UTC+00:00)

Vanguard 2 Rocket - Pass Details

Date: 17 May 2026
Orbit: 553 x 3286 km, 32.9° (Epoch: 6 June)

Event Time Altitude Azimuth Distance (km) Brightness Sun altitude
Rises 19:48:44 0° 278° (W) 6,259 11.7 52.3°
Reaches altitude 10° 19:52:27 10° 276° (W) 5,517 11.7 51.6°
Maximum altitude 20:10:16 64° 201° (SSW) 3,500 11.0 48.2°
Drops below altitude 10° 20:29:13 10° 125° (SE) 5,809 10.8 44.5°
Sets 20:33:16 0° 122° (ESE) 6,589 11.0 43.7°
